SCP
2 3 4 5 5 5 6 6 6 7 7 8 8 6 5 3 2 2 2 2 2 2 1 1 1 1 1 1 1 1 1 1 1 1 1 0 0 0 0 0 0 1 1
2 2 3 4 5 5 6 6 6 6 8 9 9 7 5 3 3 2 2 2 2 2 1 1 1 1 1 1 1 1 1 1 1 1 1 0 0 0 0 0 0 0 1
2 1 2 4 5 5 5 5 6 7 9 11 11 9 7 5 4 3 3 3 2 2 2 1 1 1 1 1 1 1 1 1 1 1 0 0 0 0 0 0 0 0 0
2 1 2 3 4 4 5 5 6 8 11 13 13 11 9 7 5 5 4 3 2 2 2 1 1 1 1 1 1 1 1 1 1 1 0 0 0 0 0 0 0 0 0
2 2 2 3 4 4 4 6 7 9 12 14 14 13 11 8 7 5 4 3 2 1 1 1 1 1 1 1 1 1 1 1 1 1 1 0 0 0 0 0 0 0 0
3 4 4 3 3 4 4 5 7 8 10 13 14 13 11 9 7 6 4 3 2 1 1 1 1 1 1 1 1 1 1 1 1 1 1 0 0 0 0 0 0 0 0
4 5 5 4 4 4 4 4 6 6 8 11 13 13 11 9 7 6 4 3 2 2 2 2 1 1 1 1 1 1 1 1 1 1 1 1 0 0 0 0 0 0 0
3 4 4 4 4 4 4 5 5 5 6 8 10 11 10 9 7 6 4 3 3 3 3 2 2 2 2 1 1 1 1 1 1 1 1 1 0 0 0 0 0 0 0
2 2 3 4 5 5 6 5 5 5 6 6 8 9 9 7 5 5 4 4 4 4 4 3 3 2 2 2 2 2 1 1 1 1 1 0 0 0 0 0 0 0 0
1 2 3 4 5 6 6 5 4 5 6 7 8 8 8 6 5 4 4 5 5 5 4 4 3 2 2 2 2 2 2 1 1 0 0 0 0 0 0 0 0 0 0
1 2 3 4 5 5 5 3 3 4 6 8 9 9 8 6 5 4 5 5 5 5 4 4 3 2 2 2 2 2 1 1 0 0 0 0 0 0 0 0 0 0 0
1 2 2 3 3 3 3 2 2 3 5 6 8 7 6 5 4 4 4 5 5 4 4 3 3 3 2 2 2 2 1 0 0 0 0 0 0 0 0 0 0 0 0
1 1 2 2 1 1 1 1 1 1 2 3 4 5 4 4 3 3 3 3 4 4 4 3 3 3 2 2 1 1 1 0 0 0 0 0 0 0 0 0 0 0 0
1 1 1 1 1 1 1 1 1 1 1 1 2 2 3 3 3 3 3 2 2 3 3 3 3 3 2 1 1 1 0 0 0 0 0 0 0 0 0 0 0 0 0
1 1 1 1 1 0 0 0 1 0 0 1 2 2 2 3 4 4 3 2 2 2 2 2 2 2 2 1 0 0 0 0 0 0 0 0 0 0 0 0 0 0 0
1 1 1 1 1 1 0 0 0 0 0 1 2 2 2 3 3 4 3 2 2 2 2 2 2 2 1 0 0 0 0 0 0 0 0 0 0 0 0 0 0 0 0
1 1 1 1 1 1 0 0 0 0 0 0 1 1 2 2 2 2 2 2 2 2 2 2 2 1 1 0 0 0 0 0 0 0 0 0 0 0 0 0 0 0 0
1 1 1 1 1 1 1 0 0 0 0 0 0 1 1 1 1 1 1 1 2 2 2 2 1 1 0 0 0 0 0 0 0 0 0 0 0 0 0 0 0 0 0
0 0 1 1 1 1 1 1 0 0 0 0 0 0 0 0 0 0 0 1 1 1 1 1 0 0 0 0 0 0 0 0 0 0 0 0 0 0 0 0 0 0 0
0 0 0 0 1 1 1 1 1 0 0 0 0 0 0 0 0 0 0 0 0 0 0 0 0 0 0 0 0 0 0 0 0 0 0 0 0 0 0 0 0 0 0
0 0 0 0 0 1 1 1 1 1 0 0 0 0 0 0 0 0 0 0 0 0 0 0 0 0 0 0 0 0 0 0 0 0 0 0 0 0 0 0 0 0 0
0 0 0 0 0 1 1 1 1 1 1 0 0 0 0 0 0 0 0 0 0 0 0 0 0 0 0 0 0 0 0 0 0 0 0 0 0 0 0 0 0 0 0
0 0 0 0 0 0 1 1 1 1 1 0 0 0 0 0 0 0 0 0 0 0 0 0 0 0 0 0 0 0 0 0 0 0 0 0 0 0 0 0 0 0 0
0 0 0 0 0 0 0 1 1 1 1 0 0 0 0 0 0 0 0 0 0 0 0 0 0 0 0 0 0 0 0 0 0 0 0 0 0 0 0 0 0 0 0
0 0 0 0 0 0 0 0 1 1 1 0 0 0 0 0 0 0 0 0 0 0 0 0 0 0 0 0 0 0 0 0 0 0 0 0 0 0 0 0 0 0 0
0 0 0 0 0 0 0 0 1 1 1 0 0 0 0 0 0 0 0 0 0 0 0 0 0 0 0 0 0 0 0 0 0 0 0 0 0 0 0 0 0 0 0
Wind_Speed
1 1 1 2 3 3 3 4 4 3 3 3 2 2 2 2 1 2 2 3 3 3 3 2 2 2 2 2 2 1 2 1 1 0 1 2 2 2 2 2 2 2 2
1 1 1 1 2 3 3 3 3 3 2 2 2 2 1 1 2 1 2 2 3 3 3 3 2 2 1 1 1 1 1 1 1 1 0 2 2 2 2 2 2 2 2
2 2 2 2 2 3 4 4 3 3 3 2 1 1 1 0 0 1 1 2 2 2 1 3 2 1 1 2 2 2 2 1 1 1 2 2 2 2 2 2 2 2 2
2 2 2 2 3 3 3 3 3 2 2 2 2 3 2 3 3 2 1 1 1 2 2 2 2 1 1 1 2 2 2 2 2 1 1 2 2 1 2 2 2 2 3
2 2 2 3 2 2 2 2 2 2 2 2 3 3 3 3 1 1 1 1 1 2 2 2 2 1 1 1 1 1 2 2 2 2 1 1 1 2 2 3 2 2 3
2 1 1 2 1 1 1 1 1 1 2 2 3 3 3 2 1 1 1 1 1 1 1 2 1 1 1 1 1 1 2 2 2 2 2 2 2 2 2 3 3 3 3
2 1 1 1 1 1 1 1 1 2 1 2 3 3 3 3 3 2 2 2 1 0 0 0 1 1 1 1 1 1 1 2 2 2 2 2 2 2 2 2 2 3 3
1 2 2 1 1 2 1 1 2 2 1 1 2 2 2 2 2 2 2 2 1 1 1 1 1 1 1 1 1 1 1 1 2 2 2 2 2 2 3 3 2 2 2
1 2 1 1 1 1 1 1 1 1 1 1 1 1 2 2 2 1 1 2 1 1 1 1 1 1 1 1 1 1 1 1 2 2 2 2 2 2 3 3 3 3 3
1 1 0 0 1 0 1 1 1 1 1 1 1 1 1 2 2 2 1 1 1 1 1 1 1 1 1 0 0 1 1 1 2 1 1 2 2 2 2 2 3 3 3
2 1 1 0 1 1 2 1 1 1 1 1 1 0 0 1 1 2 2 2 1 1 1 1 1 1 1 1 1 1 1 1 2 1 1 2 2 2 2 2 2 2 3
2 1 0 1 2 1 1 1 1 0 0 0 1 1 1 2 1 1 1 1 1 1 1 1 1 0 0 1 0 1 1 1 2 1 1 2 2 2 2 2 2 2 2
1 1 1 1 1 1 2 1 1 1 1 2 1 1 1 1 1 1 0 0 1 1 1 1 1 0 0 1 0 1 1 1 1 1 1 2 2 3 2 2 2 2 2
1 0 1 0 0 1 0 1 1 1 1 2 2 2 1 1 0 1 0 0 1 1 1 1 0 0 0 0 0 0 0 1 1 1 1 2 2 2 3 2 2 2 2
1 1 1 1 0 1 1 1 0 1 1 1 1 1 0 1 1 1 1 1 1 1 1 1 1 1 0 0 0 0 0 1 1 2 2 2 2 3 2 2 2 2 2
2 2 1 1 1 1 1 0 0 0 1 1 0 0 0 0 0 1 1 1 1 1 0 0 0 1 1 2 1 0 0 0 1 2 2 2 2 3 3 3 2 2 2
2 2 2 2 2 2 2 1 1 0 1 1 0 0 0 0 0 1 1 1 0 0 1 1 0 1 2 2 2 2 1 1 1 1 2 2 2 3 3 2 2 2 2
2 2 2 2 2 1 1 1 1 1 1 0 0 1 1 1 0 0 0 0 0 0 0 1 1 1 2 3 3 2 0 1 1 2 2 2 2 3 3 2 2 2 2
3 3 2 2 1 1 1 1 0 0 1 1 1 2 2 2 1 0 0 0 0 1 1 1 1 1 2 2 2 2 0 1 2 2 2 1 2 3 2 2 2 3 3
2 1 1 0 1 1 1 1 2 1 2 3 3 2 2 2 2 1 0 0 0 1 1 2 1 1 2 3 2 1 0 1 2 2 2 2 2 3 2 1 1 2 3
2 1 1 1 2 2 1 2 3 4 4 3 2 2 2 2 2 1 1 0 0 1 1 2 2 2 2 3 2 1 1 1 1 2 2 3 4 4 3 2 2 4 4
2 2 1 2 2 1 2 2 4 4 2 2 1 1 1 1 1 1 1 0 1 1 1 2 3 2 2 2 2 2 2 2 2 2 2 3 5 5 5 3 3 4 3
3 2 2 2 2 2 2 3 5 2 1 2 1 1 1 1 1 1 1 0 0 0 1 1 2 3 2 2 3 3 2 2 2 2 4 5 6 5 4 3 4 3 2
3 2 2 2 2 3 3 4 3 2 2 2 1 1 1 0 0 0 1 1 1 1 1 1 2 2 3 2 2 1 1 1 1 2 3 4 4 3 3 3 3 2 2
3 3 3 3 4 3 3 3 1 2 3 2 2 1 1 1 0 1 1 2 3 3 3 3 3 3 3 4 3 2 2 1 1 1 1 2 2 3 3 3 3 3 2
3 3 3 3 3 3 3 2 2 3 3 2 2 1 1 1 1 0 2 2 2 3 5 6 6 4 6 6 6 5 5 4 2 1 1 2 3 3 4 4 4 3 3
Wind_Direction
220 151 142 133 133 143 157 170 171 173 161 165 180 198 210 218 221 220 217 208 207 195 183 187 184 179 185 192 181 192 197 201 163 143 308 306 290 278 270 275 274 281 281
357 45 140 129 141 166 174 168 180 180 174 186 184 183 187 222 222 243 236 214 205 193 178 162 170 174 167 164 171 159 164 203 156 154 137 313 322 319 301 295 272 283 294
241 241 194 174 172 186 183 179 185 186 187 188 149 113 81 31 273 244 241 229 192 163 139 141 147 145 155 189 198 189 178 206 200 179 167 185 240 295 299 285 284 293 289
238 226 217 198 192 197 182 170 171 176 189 172 171 173 193 217 225 218 212 197 163 137 120 120 109 111 164 187 201 186 183 182 208 216 203 207 197 210 287 298 290 294 285
237 227 221 200 200 187 170 163 159 174 167 162 193 185 204 219 222 200 162 151 139 124 124 126 113 143 195 232 218 194 188 196 203 195 189 201 219 216 220 271 293 298 277
256 246 211 153 145 140 150 148 151 203 191 177 194 194 198 192 185 196 175 170 127 108 108 113 128 176 186 234 244 229 211 213 209 201 191 194 206 210 217 244 273 284 278
264 269 248 180 170 174 187 173 183 236 227 197 198 201 195 182 192 200 190 172 147 129 270 100 205 211 218 225 220 220 257 225 215 215 213 215 227 220 217 243 264 275 282
272 247 231 200 197 211 203 193 199 240 242 202 213 217 205 192 207 203 190 179 180 198 198 228 248 246 241 233 205 190 247 251 237 234 225 229 235 222 214 217 225 268 274
262 231 202 192 203 222 218 215 182 200 217 199 200 214 212 198 209 216 187 182 189 190 170 206 237 261 256 238 198 212 243 253 249 247 244 247 253 241 229 224 218 223 257
326 302 170 80 109 137 54 62 118 164 212 189 194 202 219 207 202 187 204 215 214 183 188 197 221 245 264 258 208 239 265 267 271 257 257 264 269 266 242 228 227 226 232
286 283 303 44 59 63 69 59 80 113 169 167 167 99 290 199 188 190 202 205 211 206 198 201 211 236 262 276 249 257 266 274 290 296 271 288 290 283 274 244 227 227 223
298 297 78 73 57 53 65 79 84 85 291 70 97 65 52 78 91 196 181 192 190 193 179 173 174 218 304 319 290 287 291 275 281 300 307 304 304 298 287 270 256 245 230
333 36 85 81 56 26 10 15 21 15 35 57 71 77 69 75 69 26 17 105 140 148 125 120 134 219 322 318 285 254 289 290 278 283 294 301 305 297 289 277 273 264 250
305 137 148 148 59 44 40 350 346 14 44 76 100 104 96 106 94 59 49 44 85 102 74 84 134 76 341 318 322 342 346 319 305 295 282 286 294 283 280 275 273 264 254
310 245 226 210 26 5 3 12 347 58 74 89 114 128 140 137 119 87 61 53 58 78 94 80 22 26 13 296 337 321 345 355 342 335 323 302 311 310 296 276 265 254 249
297 283 259 216 209 214 232 298 332 66 113 117 113 69 93 108 119 120 79 63 58 48 75 98 346 331 321 314 314 266 235 316 338 330 329 325 334 331 318 300 267 249 237
305 259 243 241 245 225 203 208 235 123 130 144 140 270 272 299 265 105 90 82 63 49 339 325 311 308 311 327 331 327 213 250 270 281 307 330 340 338 335 341 333 325 302
304 269 244 249 264 256 220 201 164 160 147 179 234 223 213 237 284 84 115 294 8 27 312 309 331 323 310 334 340 337 266 264 278 278 279 294 320 336 348 351 354 350 344
269 255 233 231 231 256 224 157 178 194 186 224 234 223 202 196 184 198 305 333 16 348 320 295 311 315 307 323 346 356 277 303 317 309 297 288 303 320 348 1 354 344 335
281 257 255 240 239 260 205 179 209 219 229 235 237 225 205 194 198 206 209 229 179 274 315 318 307 284 286 300 321 345 172 288 312 322 312 293 298 310 326 324 313 311 310
270 246 223 230 244 240 191 220 228 233 233 228 218 205 204 203 200 178 180 186 32 352 343 333 322 312 290 297 308 308 181 214 273 303 311 311 314 312 307 288 261 261 275
256 217 220 260 269 231 205 246 253 248 230 200 183 179 209 213 169 163 197 180 135 15 342 347 334 327 314 289 289 290 245 213 221 265 283 294 305 306 304 293 270 273 280
234 211 211 258 284 250 223 243 266 251 190 166 169 176 196 190 165 171 189 193 149 170 288 291 301 310 315 302 285 280 274 248 229 257 272 289 300 306 308 297 292 292 273
232 211 195 234 265 262 250 252 261 206 165 163 176 163 166 186 96 156 187 203 224 233 261 267 278 294 301 297 292 290 296 300 288 293 301 308 302 299 291 299 302 283 261
237 206 208 228 252 261 264 261 218 165 164 170 174 160 170 157 79 348 258 234 244 218 221 246 244 251 279 277 262 256 276 277 279 305 314 327 327 327 323 313 304 293 277
239 220 222 231 249 253 257 243 201 167 161 160 165 161 164 156 156 300 338 327 269 279 253 239 236 248 246 265 281 282 271 269 264 250 286 300 299 298 299 303 304 294 283